[[{"header":{"parameterUnit":"m.s-1","parameterCategory":1,"la1":30.2991,"la2":30.254,"lo1":-89.0895,"lo2":-89.0444,"dy":0.0017,"dx":0.0017,"nx":28,"ny":28,"refTime":"2023-09-13T21:00:00:Z","depth":0,"parameterNumber":2,"parameterNumberName":"U-component_of_WINDS"},"data":[0,0,0,0,0,0,0,0,0,0,0,0,0,0,0,0,0,0,0,0,0,0,0,0,0,0,0,0,0,0,0,0,0,0,0,0,0,0,0,0,0,0,0,0,0,0,0,0,0,0,0,0,0,0,0,0,0,0,-2.3428,-2.3427,0,-2.34,-2.34,-2.3399,-2.3336,-2.3334,-2.3333,-2.3332,-2.3305,-2.3306,-2.3306,0,0,0,0,0,0,0,0,0,0,0,0,0,-2.3427,-2.3427,-2.3428,-2.3427,-2.3427,-2.34,-2.34,-2.3399,-2.3336,-2.3334,-2.3333,-2.3331,-2.3305,-2.3306,-2.3306,0,0,0,0,0,0,0,0,0,0,0,0,0,-2.3416,-2.3427,-2.3428,-2.3392,-2.3389,-2.34,-2.34,-2.3399,-2.3336,-2.3334,-2.3332,-2.3331,-2.3305,-2.3306,-2.3306,-2.3351,0,0,-2.3309,-2.3309,0,0,0,0,0,0,0,0,-2.3417,-2.3416,-2.3398,-2.3395,-2.3391,-2.3369,-2.339,-2.3383,-2.3337,-2.3356,-2.3332,-2.333,-2.3328,-2.3327,-2.3326,-2.335,-2.3349,-2.3309,-2.3309,-2.331,-2.331,0,0,0,0,0,0,0,-2.3417,-2.3417,-2.3417,-2.3397,-2.3393,-2.3378,-2.3374,-2.3388,-2.3354,-2.3354,-2.335,-2.3347,-2.3326,-2.3326,-2.3325,-2.3348,-2.3309,-2.331,-2.331,-2.331,-2.3407,-2.3409,0,0,0,0,0,0,-2.3423,-2.3418,-2.3418,-2.3416,-2.3399,-2.338,-2.3375,-2.3378,-2.3353,-2.3348,-2.3349,-2.3344,-2.3325,-2.3324,-2.3324,-2.3374,-2.331,-2.331,-2.3311,-2.3404,-2.3407,-2.3409,0,0,0,0,0,0,-2.3423,-2.3424,-2.3419,-2.3416,-2.3414,-2.3382,-2.3385,-2.3379,-2.3378,-2.3349,-2.3343,-2.3355,-2.3324,-2.3323,-2.3345,-2.3372,-2.3311,-2.3312,-2.3402,-2.3405,-2.3408,-2.3475,0,0,0,0,0,0,-2.3424,-2.3424,-2.3441,-2.3416,-2.3414,-2.344,-2.3387,-2.338,-2.338,-2.3373,-2.3353,-2.3348,-2.3322,-2.3344,-2.3345,-2.3372,-2.3312,-2.3399,-2.3403,-2.3407,-2.347,-2.348,-2.3489,0,0,0,0,0,-2.3424,-2.3461,-2.3442,-2.3442,-2.3434,-2.3441,-2.344,-2.3409,-2.3382,-2.3398,-2.338,-2.3349,-2.3369,-2.3347,-2.3348,-2.3375,-2.3397,-2.3402,-2.3407,-2.3466,-2.3478,-2.3489,0,0,0,0,0,0,-2.349,-2.3457,-2.3435,-2.3466,-2.3457,-2.3431,-2.345,-2.3423,-2.3422,-2.3416,-2.3378,-2.3374,-2.3401,-2.339,-2.3366,-2.3417,-2.3378,-2.3383,-2.3423,-2.3434,-2.3443,-2.3445,-2.3313,0,0,0,0,0,-2.3508,-2.3516,-2.3487,-2.3517,-2.3513,-2.3483,-2.3485,-2.3462,-2.3451,-2.3447,-2.343,-2.3421,-2.3426,-2.3429,-2.3432,-2.3469,-2.3463,-2.3488,-2.3498,-2.3505,-2.351,-2.3528,-2.3539,-2.3425,-2.3425,-2.3424,0,0,-2.3545,-2.3528,-2.3536,-2.353,-2.352,-2.353,-2.348,-2.3493,-2.3499,-2.3449,-2.3468,-2.3456,-2.3443,-2.3473,-2.3485,-2.3465,-2.3541,-2.3511,-2.3517,-2.3518,-2.3534,-2.3545,-2.3555,-2.3428,-2.3427,-2.3427,0,0,-2.3618,-2.3606,-2.3629,-2.3621,-2.3606,-2.3585,-2.3591,-2.3569,-2.3559,-2.3577,-2.3539,-2.3547,-2.3556,-2.3549,-2.3546,-2.3616,-2.3587,-2.3618,-2.3666,-2.3684,-2.3694,-2.3701,-2.3726,-2.3736,-2.3623,-2.3623,-2.3623,0,-2.3666,-2.3679,-2.3645,-2.366,-2.3658,-2.3612,-2.3636,-2.3629,-2.3617,-2.3617,-2.3594,-2.3604,-2.3592,-2.3619,-2.3636,-2.3636,-2.3641,-2.362,-2.3695,-2.3702,-2.3709,-2.3732,-2.3742,-2.3627,-2.3627,-2.3626,-2.3626,0,-2.3739,-2.3749,-2.3769,-2.3758,-2.3758,-2.3778,-2.3747,-2.3751,-2.3728,-2.371,-2.373,-2.3715,-2.3713,-2.3718,-2.3696,-2.3742,-2.3729,-2.3702,-2.3662,-2.3724,-2.3746,-2.3754,-2.3633,-2.3631,-2.363,-2.3629,0,0,-2.3853,-2.3822,-2.383,-2.3824,-2.3805,-2.3812,-2.3829,-2.3827,-2.3832,-2.3825,-2.3838,-2.3847,-2.382,-2.3818,-2.3794,-2.3811,-2.3867,-2.378,-2.378,-2.3797,-2.3916,-2.3937,-2.3948,-2.3848,-2.3849,-2.3851,-2.3917,0,-2.3921,-2.3948,-2.3918,-2.3951,-2.3959,-2.3916,-2.3931,-2.3921,-2.3905,-2.391,-2.3892,-2.3898,-2.3863,-2.3861,-2.3875,-2.3857,-2.389,-2.3852,-2.386,-2.3861,-2.3864,-2.3959,-2.3981,-2.4045,-2.3925,-2.3927,-2.3928,0,-2.4004,-2.4001,-2.4035,-2.4013,-2.4015,-2.4029,-2.4025,-2.403,-2.4018,-2.4005,-2.4002,-2.3974,-2.3989,-2.3951,-2.3972,-2.3946,-2.3948,-2.3939,-2.3941,-2.3941,-2.3898,-2.3961,-2.4065,-2.4074,-2.3941,-2.394,-2.3939,0,-2.4084,-2.4087,-2.4108,-2.4104,-2.408,-2.409,-2.4081,-2.4067,-2.4067,-2.4064,-2.4064,-2.4062,-2.4062,-2.4061,-2.4033,-2.4008,-2.4058,-2.4017,-2.4048,-2.4048,-2.406,-2.406,-2.4165,-2.4062,-2.4062,-2.4061,-2.4061,0,-2.4163,-2.4185,-2.4143,-2.4156,-2.418,-2.4145,-2.417,-2.4156,-2.4144,-2.4153,-2.4116,-2.4126,-2.4089,-2.4095,-2.4073,-2.4094,-2.4094,-2.4084,-2.4078,-2.4087,-2.4088,-2.4088,-2.4082,-2.4064,-2.4063,-2.4063,-2.4062,0,-2.4255,-2.4228,-2.4248,-2.4222,-2.4217,-2.4236,-2.4214,-2.4225,-2.4206,-2.4219,-2.422,-2.4191,-2.4196,-2.4168,-2.4168,-2.4154,-2.4185,-2.4172,-2.4189,-2.4185,-2.4217,-2.4214,-2.4325,-2.4338,-2.4227,-2.4228,-2.4229,0,-2.4308,-2.4324,-2.43,-2.4304,-2.4296,-2.4302,-2.4302,-2.4269,-2.427,-2.4258,-2.4271,-2.4272,-2.4272,-2.4283,-2.4261,-2.4262,-2.4248,-2.4287,-2.4247,-2.4256,-2.4248,-2.4247,-2.4249,-2.4295,-2.4296,-2.4297,-2.4298,0,-2.4403,-2.4389,-2.439,-2.4387,-2.4388,-2.4384,-2.4378,-2.4383,-2.4347,-2.4351,-2.4355,-2.4355,-2.4355,-2.4358,-2.4353,-2.4344,-2.4315,-2.4311,-2.4318,-2.4327,-2.4337,-2.4332,-2.4211,-2.4308,-2.4307,-2.4307,-2.4306,-2.4306,-2.4477,-2.4489,-2.4474,-2.4477,-2.4469,-2.4464,-2.4472,-2.4455,-2.4457,-2.4454,-2.4435,-2.4443,-2.443,-2.4422,-2.4415,-2.4421,-2.4402,-2.4413,-2.4415,-2.4418,-2.4424,-2.4336,-2.442,-2.442,-2.442,-2.4419,-2.4419,0,-2.457,-2.4558,-2.4561,-2.4553,-2.4556,-2.4528,-2.452,-2.4524,-2.4531,-2.4522,-2.4522,-2.4527,-2.4529,-2.4508,-2.4508,-2.4517,-2.4504,-2.4518,-2.4517,-2.4515,-2.4441,-2.4434,-2.4528,-2.4528,-2.4528,-2.4528,-2.4528,-2.4528,-2.4619,-2.4638,-2.4622,-2.4637,-2.4625,-2.4632,-2.463,-2.4625,-2.4617,-2.4624,-2.4626,-2.4612,-2.4598,-2.4596,-2.4597,-2.459,-2.4592,-2.4611,-2.46,-2.4531,-2.452,-2.451,-2.4504,-2.4611,-2.4611,-2.4674,-2.4674,-2.4675]},{"header":{"parameterUnit":"m.s-1","parameterCategory":1,"la1":30.2991,"la2":30.254,"lo1":-89.0895,"lo2":-89.0444,"dy":0.0017,"dx":0.0017,"nx":28,"ny":28,"refTime":"2023-09-13T21:00:00:Z","depth":0,"parameterNumber":3,"parameterNumberName":"V-component_of_WINDS"},"data":[0,0,0,0,0,0,0,0,0,0,0,0,0,0,0,0,0,0,0,0,0,0,0,0,0,0,0,0,0,0,0,0,0,0,0,0,0,0,0,0,0,0,0,0,0,0,0,0,0,0,0,0,0,0,0,0,0,0,-1.1858,-1.1858,0,-1.1883,-1.1883,-1.1883,-1.1896,-1.1896,-1.1896,-1.1896,-1.192,-1.192,-1.1921,0,0,0,0,0,0,0,0,0,0,0,0,0,-1.182,-1.182,-1.1858,-1.1858,-1.1859,-1.1883,-1.1883,-1.1883,-1.1896,-1.1896,-1.1896,-1.1896,-1.1919,-1.192,-1.1921,0,0,0,0,0,0,0,0,0,0,0,0,0,-1.1839,-1.182,-1.1858,-1.1868,-1.1869,-1.1883,-1.1883,-1.1884,-1.1896,-1.1896,-1.1896,-1.1896,-1.1919,-1.192,-1.1921,-1.1926,0,0,-1.1924,-1.1924,0,0,0,0,0,0,0,0,-1.1838,-1.1841,-1.1866,-1.1867,-1.1869,-1.1886,-1.1878,-1.1898,-1.1896,-1.1886,-1.1896,-1.1896,-1.1908,-1.191,-1.1915,-1.1927,-1.1928,-1.1924,-1.1924,-1.1925,-1.1925,0,0,0,0,0,0,0,-1.1837,-1.184,-1.1868,-1.1866,-1.1868,-1.187,-1.1873,-1.1882,-1.1897,-1.1887,-1.1888,-1.1891,-1.1909,-1.1914,-1.1915,-1.1929,-1.1924,-1.1925,-1.1925,-1.1926,-1.1946,-1.1946,0,0,0,0,0,0,-1.1834,-1.1839,-1.1867,-1.1868,-1.1853,-1.1871,-1.1874,-1.1881,-1.1897,-1.1899,-1.189,-1.1891,-1.1912,-1.1914,-1.1916,-1.1924,-1.1925,-1.1926,-1.1926,-1.1946,-1.1946,-1.1946,0,0,0,0,0,0,-1.1833,-1.1837,-1.1866,-1.1854,-1.1858,-1.1872,-1.1879,-1.1881,-1.1886,-1.1899,-1.1902,-1.1893,-1.1912,-1.1915,-1.1924,-1.1925,-1.1926,-1.1927,-1.1946,-1.1946,-1.1946,-1.1938,0,0,0,0,0,0,-1.1832,-1.1836,-1.1839,-1.1854,-1.1858,-1.1874,-1.1879,-1.1882,-1.1888,-1.1889,-1.1902,-1.1905,-1.1913,-1.1922,-1.1925,-1.1926,-1.1928,-1.1946,-1.1946,-1.1946,-1.1938,-1.1938,-1.1937,0,0,0,0,0,-1.1831,-1.1835,-1.1839,-1.1842,-1.1862,-1.1874,-1.1876,-1.1886,-1.1888,-1.189,-1.1899,-1.1904,-1.1924,-1.1923,-1.1926,-1.1927,-1.1946,-1.1946,-1.1946,-1.1938,-1.1938,-1.1937,0,0,0,0,0,0,-1.1819,-1.1837,-1.1842,-1.1851,-1.1861,-1.1876,-1.1879,-1.1885,-1.1894,-1.1894,-1.1905,-1.1908,-1.1916,-1.1922,-1.1921,-1.1933,-1.1936,-1.1936,-1.1929,-1.1928,-1.1928,-1.1926,-1.1928,0,0,0,0,0,-1.1817,-1.1826,-1.1841,-1.1848,-1.1852,-1.1865,-1.187,-1.1877,-1.1887,-1.1891,-1.1901,-1.191,-1.1918,-1.1923,-1.1932,-1.1939,-1.1942,-1.1941,-1.1941,-1.194,-1.1941,-1.1945,-1.1945,-1.1947,-1.1947,-1.1947,0,0,-1.1814,-1.1825,-1.183,-1.1846,-1.1854,-1.1862,-1.1868,-1.1876,-1.1882,-1.1892,-1.1902,-1.1909,-1.192,-1.1928,-1.1932,-1.1933,-1.1941,-1.194,-1.194,-1.1941,-1.1945,-1.1945,-1.1945,-1.1947,-1.1947,-1.1947,0,0,-1.1813,-1.1822,-1.1829,-1.1837,-1.185,-1.1858,-1.186,-1.1874,-1.1879,-1.1889,-1.1897,-1.1903,-1.1918,-1.1925,-1.1931,-1.1932,-1.1938,-1.1935,-1.1932,-1.1936,-1.1936,-1.1936,-1.1937,-1.1937,-1.1935,-1.1935,-1.1935,0,-1.1807,-1.182,-1.1831,-1.1839,-1.1846,-1.1856,-1.1863,-1.187,-1.1884,-1.1889,-1.189,-1.1909,-1.1917,-1.1927,-1.1927,-1.1931,-1.1933,-1.1933,-1.1935,-1.1935,-1.1935,-1.1936,-1.1936,-1.1935,-1.1935,-1.1935,-1.1935,0,-1.1812,-1.1821,-1.1825,-1.184,-1.1847,-1.1854,-1.1866,-1.1871,-1.1878,-1.1885,-1.1895,-1.1905,-1.1916,-1.1918,-1.1924,-1.1929,-1.193,-1.1933,-1.1936,-1.1935,-1.1936,-1.1936,-1.1934,-1.1934,-1.1934,-1.1934,0,0,-1.1804,-1.1825,-1.1826,-1.1833,-1.1848,-1.1855,-1.1863,-1.1874,-1.1879,-1.1888,-1.1895,-1.1906,-1.191,-1.1916,-1.1923,-1.1926,-1.1927,-1.1929,-1.193,-1.1929,-1.1933,-1.1931,-1.1931,-1.1931,-1.1931,-1.1931,-1.1933,0,-1.1805,-1.182,-1.183,-1.1841,-1.1849,-1.1859,-1.1865,-1.1875,-1.1882,-1.189,-1.1898,-1.1906,-1.191,-1.1914,-1.1918,-1.1926,-1.1928,-1.1926,-1.1936,-1.1937,-1.1934,-1.1932,-1.1929,-1.193,-1.1933,-1.1933,-1.1933,0,-1.1808,-1.1818,-1.183,-1.1844,-1.1848,-1.1854,-1.1865,-1.1873,-1.1883,-1.1889,-1.1896,-1.1903,-1.1911,-1.1913,-1.1923,-1.1922,-1.1926,-1.1931,-1.1931,-1.1933,-1.1935,-1.1933,-1.1931,-1.1931,-1.1934,-1.1934,-1.1934,0,-1.1801,-1.1818,-1.1827,-1.1832,-1.1849,-1.1853,-1.186,-1.1871,-1.1877,-1.1887,-1.1891,-1.1901,-1.1906,-1.1913,-1.1923,-1.1923,-1.1932,-1.1935,-1.1936,-1.1936,-1.1938,-1.1938,-1.1937,-1.1941,-1.1941,-1.1941,-1.1941,0,-1.1801,-1.1808,-1.1824,-1.183,-1.1838,-1.1849,-1.1856,-1.1864,-1.1874,-1.188,-1.1889,-1.1895,-1.1907,-1.1914,-1.1921,-1.1929,-1.1931,-1.1935,-1.1937,-1.1935,-1.1934,-1.1938,-1.1938,-1.1941,-1.1941,-1.1941,-1.1941,0,-1.1794,-1.1806,-1.1817,-1.1832,-1.1836,-1.1841,-1.1854,-1.1859,-1.1868,-1.1876,-1.1879,-1.1891,-1.19,-1.191,-1.1922,-1.1927,-1.1934,-1.1937,-1.1931,-1.1932,-1.1933,-1.1933,-1.1934,-1.1935,-1.1938,-1.1938,-1.1938,0,-1.1794,-1.1799,-1.1816,-1.1821,-1.1829,-1.1837,-1.1844,-1.1855,-1.1862,-1.1874,-1.1878,-1.1888,-1.1897,-1.1911,-1.1921,-1.193,-1.1933,-1.1933,-1.1934,-1.1932,-1.1933,-1.1933,-1.1933,-1.1932,-1.1932,-1.1932,-1.1932,0,-1.1792,-1.1797,-1.1807,-1.1818,-1.1826,-1.1835,-1.1845,-1.1849,-1.1862,-1.1868,-1.1878,-1.1885,-1.1898,-1.1908,-1.1918,-1.1925,-1.193,-1.1931,-1.1932,-1.193,-1.1926,-1.1928,-1.193,-1.1931,-1.1931,-1.1931,-1.1931,-1.1931,-1.1788,-1.1794,-1.1806,-1.1817,-1.1825,-1.1834,-1.184,-1.1849,-1.1858,-1.187,-1.1876,-1.1886,-1.1896,-1.1911,-1.1917,-1.1925,-1.1927,-1.1928,-1.1928,-1.1928,-1.1928,-1.1925,-1.1927,-1.1927,-1.1927,-1.1927,-1.1927,0,-1.1787,-1.1795,-1.1805,-1.1818,-1.1826,-1.1832,-1.1843,-1.1849,-1.1858,-1.1868,-1.1876,-1.1887,-1.1897,-1.1907,-1.1917,-1.1921,-1.1924,-1.1923,-1.1923,-1.1924,-1.1925,-1.1924,-1.1921,-1.1921,-1.1921,-1.1921,-1.1921,-1.1921,-1.1787,-1.1797,-1.1803,-1.1817,-1.1826,-1.1836,-1.1842,-1.185,-1.1858,-1.187,-1.1879,-1.1886,-1.1896,-1.1906,-1.1915,-1.1918,-1.1921,-1.192,-1.1923,-1.1924,-1.1924,-1.1925,-1.1923,-1.192,-1.192,-1.1921,-1.1921,-1.1921]}]]